Wind_Speed
21 21 21 21 21 21 21 22 23 24 24 25 25 25 26 25 26 26 25 25 25 24 23 22 22 22 21 21 21 21 20 20 19 18 19 19 20 20 20 20 20 20 20
23 23 23 23 23 23 23 23 24 25 26 26 27 28 28 28 28 28 27 27 26 26 25 25 24 24 23 23 23 23 22 21 21 20 20 21 21 21 21 21 22 22 22
25 24 24 25 25 25 25 26 26 27 27 28 28 29 29 29 30 29 29 28 28 28 27 27 27 26 25 25 24 24 24 23 23 22 22 22 22 22 22 22 23 23 22
26 27 27 27 28 28 28 28 29 29 29 29 29 29 30 31 31 30 30 29 29 29 28 29 28 27 27 27 26 25 25 24 24 24 24 23 23 23 23 23 23 23 23
28 29 29 30 30 30 31 31 31 31 30 30 30 30 30 30 30 30 30 30 29 29 29 29 28 28 27 27 27 27 26 26 25 25 25 24 24 24 23 23 23 23 23
30 31 31 32 32 32 33 33 33 33 32 32 31 31 31 31 31 31 31 31 30 30 30 29 29 28 28 28 28 28 28 27 27 27 26 25 25 25 24 24 24 24 24
32 32 33 33 33 33 34 34 34 34 33 33 32 32 32 32 32 32 31 31 31 30 30 29 29 28 29 29 29 29 29 28 28 27 26 26 25 25 25 24 25 25 25
32 33 34 34 33 34 34 34 33 33 34 34 34 34 34 33 33 32 31 31 30 30 30 29 29 30 30 29 29 29 29 29 28 28 28 27 27 26 25 25 26 26 25
33 33 34 34 34 34 35 35 34 34 34 34 34 34 34 34 33 32 31 31 30 30 30 30 31 30 30 30 29 29 29 29 29 29 29 28 28 28 28 27 26 25 25
34 34 34 35 35 35 35 35 35 35 34 34 34 34 34 33 33 33 33 32 31 31 31 31 31 31 30 30 30 30 30 29 29 29 29 29 29 29 29 28 27 27 26
34 34 35 35 35 35 35 35 34 34 35 35 34 34 34 33 33 33 33 33 33 33 32 32 32 32 31 30 31 31 30 30 30 30 30 30 30 29 29 28 28 28 27
34 35 35 35 35 34 34 34 34 34 34 33 32 32 33 33 33 33 33 33 33 33 33 33 33 33 32 31 31 31 31 31 31 31 31 30 30 29 29 28 27 28 28
34 34 34 34 35 34 35 35 34 34 34 33 33 33 32 33 34 34 34 34 33 34 34 33 33 33 33 32 31 31 32 32 31 31 30 31 30 30 30 29 29 29 29
34 34 33 34 35 35 36 36 35 34 33 33 33 34 33 33 34 34 34 34 33 33 32 33 33 32 32 32 32 32 32 31 31 31 31 31 32 32 31 30 30 29 30
33 33 34 35 35 36 36 36 35 34 34 34 34 34 35 34 34 34 34 34 33 32 32 32 32 31 31 31 32 31 31 30 31 31 32 32 32 33 33 33 32 31 30
33 33 34 34 35 35 35 35 35 34 34 34 35 35 34 34 34 34 34 33 33 32 32 32 32 31 31 31 32 31 31 31 31 32 31 32 32 33 33 33 33 32 32
33 33 33 33 33 33 34 35 35 35 35 35 35 35 35 35 34 34 33 33 33 32 32 32 32 32 32 31 31 31 32 32 32 32 31 32 33 33 33 32 32 33 33
32 32 32 32 32 33 34 34 34 34 35 35 35 34 35 35 34 34 33 33 32 32 32 31 31 31 31 31 31 31 32 32 32 32 32 32 33 33 33 32 32 33 34
32 33 32 32 32 33 33 32 32 33 34 33 33 33 34 34 34 33 32 32 31 30 30 30 30 31 31 31 32 32 32 32 32 32 32 32 32 33 33 32 32 32 32
33 33 33 33 33 33 31 31 31 31 31 32 32 32 31 32 32 31 30 31 31 31 30 30 30 31 31 31 31 32 32 31 31 31 31 32 32 32 32 32 32 32 32
33 33 33 33 33 32 31 30 29 29 30 30 31 31 31 30 30 29 29 28 29 29 30 30 30 30 30 30 31 32 32 32 32 31 32 32 32 33 33 32 32 32 33
34 32 32 32 32 31 30 29 28 28 29 29 29 29 29 29 29 29 29 28 28 29 30 30 31 32 31 31 31 32 32 32 32 32 32 32 33 33 34 33 32 32 33
33 31 31 31 31 30 29 29 29 29 28 28 27 27 27 27 27 28 28 29 29 30 30 31 31 31 31 31 32 32 32 32 32 32 32 32 32 33 32 33 33 33 33
31 31 30 30 30 29 29 29 29 29 28 28 28 28 27 27 27 28 28 28 28 29 29 30 30 30 30 31 31 32 32 32 32 32 32 32 31 31 32 32 32 33 33
31 31 30 30 30 30 29 29 29 29 29 30 29 29 28 28 28 28 28 28 28 28 29 29 29 30 30 30 30 30 30 30 30 30 30 30 30 31 32 32 32 32 32
29 29 29 29 30 30 30 30 30 30 30 29 29 29 28 27 28 28 27 28 28 28 27 27 27 27 28 28 29 29 29 29 29 29 29 29 28 29 30 30 31 31 31
Wind_Direction
271 273 275 276 277 279 281 282 283 284 283 283 281 280 279 279 279 279 279 278 277 277 277 277 278 278 276 276 276 276 275 274 273 273 272 273 272 272 272 271 270 270 270
271 272 274 276 277 278 280 281 282 284 284 283 281 280 279 278 278 277 277 277 276 275 275 275 275 276 275 274 274 274 273 272 272 273 274 275 274 271 271 271 272 271 270
272 272 275 277 278 278 279 281 282 283 284 283 282 281 279 278 277 277 276 277 276 275 274 273 273 273 274 273 272 271 270 270 271 272 274 275 276 273 272 272 272 271 270
272 274 275 277 278 278 279 280 282 282 283 284 284 282 281 279 278 277 277 277 275 274 274 272 272 272 272 271 269 268 269 269 270 271 272 273 274 275 273 272 272 270 269
273 274 276 278 278 279 280 281 281 282 282 283 284 284 282 281 279 278 276 275 275 274 273 272 271 271 269 268 268 267 267 267 269 271 271 272 272 273 274 273 273 271 269
275 275 276 278 279 280 281 282 282 282 282 282 282 282 282 281 280 278 276 274 273 273 272 270 271 271 268 266 265 266 266 266 269 270 270 272 272 271 272 273 273 272 270
277 276 277 277 279 281 281 283 282 282 281 281 281 281 280 280 279 278 275 274 273 273 271 269 269 269 268 266 265 265 265 266 268 269 268 269 270 269 270 270 272 272 270
277 278 278 277 279 281 281 283 282 282 281 281 280 279 279 278 277 276 276 275 274 273 271 270 269 267 267 266 265 264 265 266 267 267 268 268 269 269 269 270 272 270 269
279 279 279 278 279 280 281 283 282 281 282 281 280 279 278 277 275 274 273 274 273 272 271 270 269 267 267 266 264 265 266 267 267 266 265 266 266 266 268 269 271 270 269
280 281 280 279 279 280 281 281 281 281 282 281 279 279 279 276 274 273 272 273 272 272 271 270 269 268 267 266 265 265 266 266 266 266 265 264 265 266 267 268 269 269 270
280 281 281 282 280 281 281 281 281 281 281 281 279 278 277 276 274 272 271 272 272 271 270 269 268 267 267 266 266 266 266 265 264 265 264 264 265 265 265 267 268 268 270
282 281 281 281 281 279 280 280 280 281 281 281 279 278 278 276 274 273 272 273 272 269 269 268 268 267 267 266 266 266 265 265 264 265 264 263 264 265 266 266 267 267 268
282 281 281 280 280 279 279 278 279 279 280 278 278 277 277 276 275 273 273 273 272 269 267 267 267 266 265 266 265 264 264 264 265 264 264 263 263 264 266 266 266 267 267
282 282 281 281 280 279 279 278 278 277 277 277 278 279 278 277 275 273 274 273 271 268 266 265 264 263 263 264 264 265 264 264 264 264 264 263 262 263 265 266 266 266 267
283 282 281 281 280 279 277 277 278 277 276 276 276 277 278 276 275 275 274 270 269 267 265 263 262 262 263 263 263 265 264 263 264 264 264 264 265 264 264 264 265 266 266
283 282 282 282 280 279 278 278 278 276 276 275 275 277 277 275 274 274 272 271 268 265 264 264 263 264 264 265 265 265 265 264 264 264 264 265 266 267 266 265 265 265 267
283 283 282 282 281 280 278 278 279 277 276 275 275 276 276 276 274 275 272 270 268 266 264 264 264 264 264 265 265 266 266 265 264 265 264 264 265 266 266 267 266 265 265
284 283 281 281 281 281 280 279 280 279 277 276 276 276 275 275 274 274 272 270 267 267 265 264 264 265 266 265 265 267 267 266 264 264 264 263 264 265 266 268 268 266 265
283 282 280 281 282 284 282 281 281 280 279 277 277 276 275 274 274 273 271 269 268 267 266 266 266 267 267 266 266 266 266 266 266 264 265 264 265 266 267 268 268 268 267
284 281 279 280 281 283 283 282 282 282 280 277 277 277 276 275 274 273 271 268 266 265 265 266 267 268 268 266 264 264 264 266 267 266 266 266 266 266 266 266 267 267 267
285 282 280 279 279 280 281 282 283 282 281 280 279 278 277 276 273 272 271 267 266 266 267 267 267 268 268 266 264 263 264 267 267 266 267 266 265 266 266 265 266 266 267
284 282 280 278 279 280 280 281 281 282 282 281 280 280 279 275 272 269 268 266 265 265 268 269 268 268 268 267 265 265 265 266 266 268 268 267 266 266 265 265 265 266 266
283 281 279 279 280 280 280 281 281 281 281 281 281 280 279 276 273 270 269 267 265 266 268 270 269 268 269 268 267 266 265 265 267 268 268 268 266 265 264 265 264 264 265
281 280 279 279 279 280 280 280 280 280 280 280 280 279 277 276 274 273 270 270 270 268 267 268 267 267 267 268 268 268 266 266 267 268 268 267 266 265 265 265 265 264 265
280 279 278 279 280 280 280 280 279 279 281 281 279 278 276 274 273 273 271 271 272 270 267 267 267 267 267 268 268 269 268 267 267 267 266 265 265 266 267 266 265 265 265
279 279 279 280 280 281 281 282 281 280 280 279 277 276 274 273 272 272 271 271 271 269 268 268 268 267 268 268 268 268 267 267 267 266 265 265 265 267 268 268 267 266 266
Height
5803 5803 5803 5802 5802 5802 5801 5800 5800 5799 5798 5797 5796 5795 5794 5793 5792 5791 5790 5789 5789 5788 5788 5787 5787 5786 5786 5785 5785 5784 5784 5784 5785 5785 5784 5784 5784 5784 5784 5784 5784 5784 5784
5797 5796 5796 5796 5795 5795 5795 5794 5793 5792 5791 5789 5788 5787 5786 5785 5784 5783 5782 5782 5781 5781 5780 5780 5780 5779 5779 5779 5779 5779 5779 5779 5779 5779 5779 5779 5778 5778 5778 5778 5778 5778 5778
5790 5790 5790 5789 5789 5788 5787 5786 5785 5784 5783 5782 5780 5779 5778 5777 5776 5775 5774 5773 5773 5772 5772 5771 5771 5771 5772 5772 5772 5772 5772 5772 5773 5773 5773 5773 5773 5772 5772 5772 5772 5772 5772
5782 5782 5782 5781 5781 5780 5779 5778 5777 5776 5774 5773 5771 5770 5769 5768 5767 5766 5765 5765 5764 5764 5763 5763 5763 5763 5763 5763 5764 5765 5765 5765 5765 5766 5766 5766 5766 5766 5765 5765 5765 5765 5765
5774 5774 5773 5773 5772 5772 5770 5769 5768 5767 5765 5764 5762 5761 5760 5759 5758 5757 5757 5756 5756 5755 5754 5754 5754 5754 5754 5755 5756 5756 5757 5757 5758 5758 5759 5759 5759 5759 5759 5758 5758 5757 5757
5765 5765 5764 5764 5763 5762 5761 5760 5758 5757 5755 5754 5752 5751 5750 5749 5748 5747 5747 5747 5746 5746 5746 5745 5745 5745 5746 5746 5747 5748 5749 5749 5750 5750 5751 5751 5751 5751 5751 5751 5751 5751 5751
5756 5755 5755 5754 5753 5752 5751 5750 5748 5747 5745 5744 5742 5741 5740 5739 5738 5737 5737 5736 5736 5736 5736 5736 5736 5736 5737 5737 5738 5739 5740 5740 5741 5742 5742 5743 5743 5744 5744 5743 5743 5743 5743
5746 5745 5744 5744 5743 5742 5740 5739 5738 5736 5735 5734 5733 5731 5730 5729 5728 5727 5727 5727 5727 5727 5727 5727 5727 5727 5728 5728 5729 5730 5731 5732 5732 5733 5734 5735 5735 5735 5736 5736 5735 5735 5735
5736 5736 5734 5733 5732 5731 5730 5729 5727 5726 5725 5723 5722 5721 5719 5718 5717 5717 5717 5717 5717 5717 5717 5718 5718 5718 5719 5719 5720 5721 5722 5723 5723 5724 5725 5726 5726 5727 5727 5727 5727 5727 5727
5726 5725 5724 5723 5722 5720 5719 5718 5717 5715 5714 5713 5712 5710 5709 5708 5708 5707 5707 5707 5708 5708 5708 5708 5708 5709 5709 5710 5711 5712 5713 5714 5715 5715 5716 5717 5717 5718 5718 5719 5719 5719 5719
5716 5714 5713 5712 5711 5709 5708 5707 5706 5705 5704 5702 5701 5700 5699 5698 5697 5697 5697 5696 5697 5697 5698 5698 5699 5699 5700 5700 5701 5702 5704 5704 5705 5706 5706 5707 5708 5709 5710 5710 5711 5711 5711
5705 5704 5702 5701 5700 5698 5697 5696 5695 5694 5693 5692 5690 5690 5689 5688 5687 5686 5686 5685 5686 5687 5687 5688 5688 5689 5689 5690 5691 5692 5693 5694 5695 5696 5697 5698 5699 5700 5701 5701 5702 5702 5703
5695 5693 5691 5690 5688 5687 5686 5685 5684 5683 5682 5681 5681 5680 5679 5678 5677 5676 5675 5675 5674 5675 5676 5677 5677 5678 5679 5680 5681 5682 5683 5684 5685 5686 5688 5689 5690 5691 5691 5692 5692 5693 5693
5684 5682 5680 5679 5678 5677 5675 5674 5673 5672 5671 5671 5670 5669 5668 5667 5667 5666 5665 5664 5664 5664 5665 5666 5666 5667 5668 5669 5671 5671 5673 5674 5675 5677 5677 5678 5680 5681 5681 5682 5683 5683 5684
5673 5671 5669 5668 5667 5666 5664 5663 5662 5661 5660 5659 5659 5658 5657 5657 5656 5655 5654 5653 5653 5654 5654 5655 5655 5657 5658 5659 5660 5661 5662 5664 5665 5667 5667 5668 5669 5670 5671 5672 5673 5674 5674
5662 5661 5659 5657 5656 5654 5653 5652 5651 5650 5649 5648 5647 5647 5646 5645 5644 5644 5643 5643 5643 5643 5644 5645 5646 5647 5648 5649 5650 5651 5652 5654 5655 5656 5657 5658 5659 5660 5661 5661 5662 5663 5664
5652 5650 5649 5647 5645 5644 5643 5641 5641 5640 5638 5637 5636 5635 5635 5634 5633 5633 5632 5632 5632 5632 5633 5635 5636 5637 5638 5639 5640 5641 5642 5643 5644 5645 5646 5647 5648 5649 5650 5651 5651 5652 5654
5642 5640 5638 5636 5635 5633 5632 5631 5629 5628 5628 5627 5626 5625 5624 5623 5622 5622 5621 5621 5621 5622 5623 5624 5625 5627 5628 5629 5630 5631 5632 5633 5633 5634 5635 5636 5637 5638 5639 5640 5641 5642 5643
5632 5630 5628 5626 5625 5623 5621 5620 5619 5617 5616 5615 5615 5614 5613 5612 5612 5611 5611 5611 5612 5612 5613 5614 5615 5616 5617 5618 5619 5620 5621 5622 5623 5624 5625 5626 5627 5628 5629 5629 5630 5631 5632
5621 5619 5618 5616 5615 5613 5611 5609 5608 5607 5606 5605 5604 5604 5603 5602 5601 5601 5601 5601 5601 5602 5603 5605 5606 5606 5607 5608 5609 5610 5611 5611 5612 5613 5614 5615 5616 5617 5618 5618 5619 5620 5621
5611 5609 5607 5606 5604 5603 5601 5600 5598 5597 5596 5595 5594 5593 5592 5592 5591 5591 5591 5591 5592 5593 5594 5595 5596 5597 5597 5598 5599 5600 5600 5601 5602 5603 5604 5604 5605 5606 5607 5607 5608 5609 5610
5601 5599 5597 5595 5594 5593 5592 5590 5589 5588 5586 5585 5585 5584 5583 5582 5582 5582 5582 5583 5583 5584 5584 5585 5586 5587 5588 5588 5589 5589 5590 5591 5592 5592 5593 5593 5594 5595 5595 5597 5598 5599 5600
5590 5588 5587 5586 5584 5583 5582 5581 5580 5578 5577 5576 5575 5575 5574 5573 5572 5573 5573 5573 5574 5574 5575 5575 5576 5577 5577 5578 5578 5579 5579 5580 5581 5581 5582 5582 5583 5584 5585 5586 5587 5588 5589
5579 5578 5577 5576 5575 5574 5573 5572 5570 5569 5568 5567 5566 5565 5564 5564 5563 5564 5564 5564 5564 5564 5565 5565 5566 5566 5567 5567 5568 5568 5568 5569 5570 5570 5571 5572 5573 5573 5574 5575 5576 5577 5578
5569 5568 5567 5566 5565 5564 5563 5562 5561 5559 5558 5557 5556 5555 5555 5554 5554 5554 5554 5554 5554 5555 5555 5555 5556 5556 5556 5557 5557 5557 5557 5558 5559 5560 5561 5562 5563 5563 5564 5565 5566 5566 5567
5559 5558 5557 5556 5555 5554 5553 5552 5551 5549 5548 5547 5546 5545 5545 5545 5544 5544 5544 5545 5545 5545 5545 5546 5546 5546 5546 5546 5547 5547 5547 5548 5549 5550 5551 5552 5553 5553 5554 5554 5555 5556 5557